Location: Godiavel Galaoual
(15.2485°N, 12.6604°W)
Time: 07:37:32
(UTC+00:00)

METEOR M2 - Pass Details

Date: 02 August 2021
Orbit: 818 x 827 km, 98.5° (Epoch: 27 September)

Event Time Altitude Azimuth Distance (km) Brightness Sun altitude
Rises 20:17:02 0° 179° (S) 3,354 ? -13.6°
Reaches altitude 10° 20:19:27 10° 184° (S) 2,422 ? -14.2°
Maximum altitude 20:24:38 50° 259° (W) 1,048 ? -15.3°
Drops below altitude 10° 20:29:49 10° 334° (NNW) 2,423 ? -16.5°
Sets 20:32:14 0° 339° (NNW) 3,356 ? -17.0°
